Weather History for Culpeper, VA

Change the Weather History Date:

Tuesday, February 12, 2013

  Actual Average (KOMH) Record (KOMH)
Temperature  
Mean Temperature 50 °F -  
Max Temperature 64 °F 46 °F 70 °F (1951)
Min Temperature 35 °F 23 °F 7 °F (1955)
Degree Days  
Heating Degree Days 16    
Moisture  
Dew Point -6 °F    
Average Humidity 22    
Maximum Humidity 81    
Minimum Humidity 4    
Precipitation  
Precipitation 0.00 in - - ()
Sea Level Pressure  
Sea Level Pressure 29.93 in    
Wind  
Wind Speed 5 mph (SW)    
Max Wind Speed 13 mph    
Max Gust Speed 25 mph    
Visibility 10 miles    
Events      
Averages and records for this station are not official NWS values.
T = Trace of Precipitation, MM = Missing Value Source: NWS Daily Summary

Daily Weather History Graph

Daily Weather History Graph

Search for Another Location

Airport:

Trip Planner

Search our weather history database for the weather conditions in past years. The results will help you decide how hot, cold, wet, or windy it might be!

Date:

Astronomy

Feb. 12, 2013 Rise Set
Actual Time 7:05 AM EST 5:46 PM EST
Civil Twilight 6:38 AM EST 6:13 PM EST
Nautical Twilight 6:06 AM EST 6:44 PM EST
Astronomical Twilight 5:36 AM EST 7:15 PM EST
Moon 8:04 AM EST (2/12) 8:42 PM EST (2/12)
Length of Visible Light 11h 35m
Length of Day
10h 41m
Waxing Crescent, 7% of the Moon is Illuminated
Feb 12
Waxing Crescent
Feb 17
First Quarter
Feb 25
Full
Mar 4
Last Quarter
Mar 11
New

Hourly Weather History & Observations

Time (EST) Temp. Windchill Dew Point Humidity Pressure Visibility Wind Dir Wind Speed Gust Speed Precip Events Conditions
12:15 AM 57.2 °F - 24.8 °F 29% 29.83 in 10.0 mi WNW 9.2 mph - N/A   Clear
12:35 AM 55.4 °F - 24.8 °F 31% 29.83 in 10.0 mi WNW 10.4 mph - N/A   Clear
12:55 AM 55.4 °F - 24.8 °F 31% 29.84 in 10.0 mi WNW 10.4 mph - N/A   Clear
1:15 AM 53.6 °F - 24.8 °F 33% 29.85 in 10.0 mi WNW 9.2 mph - N/A   Clear
1:35 AM 51.8 °F - 24.8 °F 35% 29.86 in 10.0 mi WNW 12.7 mph - N/A   Clear
1:55 AM 53.6 °F - 26.6 °F 35% 29.87 in 10.0 mi West 10.4 mph 25.3 mph N/A   Clear
2:15 AM 51.8 °F - 28.4 °F 41% 29.88 in 10.0 mi West 6.9 mph - N/A   Clear
2:35 AM 51.8 °F - 28.4 °F 41% 29.88 in 10.0 mi WSW 6.9 mph - N/A   Clear
2:55 AM 48.2 °F - 28.4 °F 46% 29.89 in 10.0 mi West 5.8 mph - N/A   Clear
3:15 AM 48.2 °F - 28.4 °F 46% 29.89 in 10.0 mi West 6.9 mph - N/A   Clear
3:35 AM 50.0 °F - 28.4 °F 43% 29.89 in 10.0 mi West 8.1 mph - N/A   Clear
3:55 AM 48.2 °F - 30.2 °F 50% 29.89 in 10.0 mi SSW 5.8 mph - N/A   Clear
4:15 AM 50.0 °F - 26.6 °F 40% 29.89 in 10.0 mi West 5.8 mph - N/A   Clear
4:35 AM 50.0 °F - 26.6 °F 40% 29.90 in 10.0 mi WNW 4.6 mph - N/A   Clear
4:55 AM 48.2 °F - 26.6 °F 43% 29.91 in 10.0 mi Calm Calm - N/A   Clear
5:15 AM 44.6 °F 43.1 °F 28.4 °F 53% 29.91 in 10.0 mi SSE 3.5 mph - N/A   Clear
5:35 AM 42.8 °F - 28.4 °F 57% 29.90 in 10.0 mi Calm Calm - N/A   Clear
5:55 AM 39.2 °F - 28.4 °F 65% 29.93 in 10.0 mi Calm Calm - N/A   Clear
6:15 AM 39.2 °F 37.0 °F -40.0 °F 4% 29.93 in 10.0 mi North 3.5 mph - N/A   Clear
6:35 AM 37.4 °F - -5.8 °F 16% 29.93 in 10.0 mi Calm Calm - N/A   Clear
6:55 AM 37.4 °F - -13.0 °F 11% 29.94 in 10.0 mi Calm Calm - N/A   Clear
7:15 AM 35.6 °F - -13.0 °F 12% 29.94 in 10.0 mi Calm Calm - N/A   Clear
7:35 AM 37.4 °F - 28.4 °F 70% 29.95 in 10.0 mi Calm Calm - N/A   Clear
7:55 AM 37.4 °F - 30.2 °F 75% 29.96 in 10.0 mi Calm Calm - N/A   Clear
8:15 AM 35.6 °F - 30.2 °F 81% 29.96 in 10.0 mi Calm Calm - N/A   Clear
8:35 AM 35.6 °F - 30.2 °F 81% 29.96 in 10.0 mi Calm Calm - N/A   Clear
8:55 AM 46.4 °F - 32.0 °F 57% 29.97 in 10.0 mi Calm Calm - N/A   Clear
9:15 AM 50.0 °F - 30.2 °F 47% 29.98 in 10.0 mi SSE 3.5 mph - N/A   Clear
9:35 AM 51.8 °F - 28.4 °F 41% 30.00 in 10.0 mi Calm Calm - N/A   Clear
9:55 AM 51.8 °F - 28.4 °F 41% 29.99 in 10.0 mi Calm Calm - N/A   Clear
10:15 AM 53.6 °F - 26.6 °F 35% 29.99 in 10.0 mi Calm Calm - N/A   Clear
10:35 AM 55.4 °F - 28.4 °F 36% 29.99 in 10.0 mi SE 5.8 mph - N/A   Clear
10:55 AM 55.4 °F - 28.4 °F 36% 29.99 in 10.0 mi Calm Calm - N/A   Clear
11:15 AM 57.2 °F - -29.2 °F 4% 29.99 in 10.0 mi Calm Calm - N/A   Clear
11:35 AM 57.2 °F - -27.4 °F 4% 29.99 in 10.0 mi SSW 5.8 mph - N/A   Clear
11:55 AM 59.0 °F - -27.4 °F 4% 29.99 in 10.0 mi SW 5.8 mph - N/A   Clear
12:15 PM 59.0 °F - -27.4 °F 4% 29.98 in 10.0 mi South 6.9 mph - N/A   Clear
12:35 PM 60.8 °F - -27.4 °F 4% 29.97 in 10.0 mi SW 4.6 mph - N/A   Clear
12:55 PM 60.8 °F - -27.4 °F 4% 29.96 in 10.0 mi Calm Calm - N/A   Clear
1:15 PM 62.6 °F - -25.6 °F 4% 29.95 in 10.0 mi SW 4.6 mph - N/A   Clear
1:35 PM 62.6 °F - -25.6 °F 4% 29.93 in 10.0 mi SSE 4.6 mph - N/A   Clear
1:55 PM 62.6 °F - -25.6 °F 4% 29.92 in 10.0 mi SSE 5.8 mph - N/A   Clear
2:15 PM 62.6 °F - -25.6 °F 4% 29.89 in 10.0 mi SE 5.8 mph - N/A   Clear
2:35 PM 62.6 °F - -25.6 °F 4% 29.85 in 10.0 mi SSE 3.5 mph - N/A   Clear
2:55 PM 64.4 °F - -23.8 °F 4% 29.91 in 10.0 mi SW 4.6 mph - N/A   Clear
3:15 PM 64.4 °F - -23.8 °F 4% 29.94 in 10.0 mi South 6.9 mph - N/A   Clear
3:35 PM 64.4 °F - -23.8 °F 4% 29.92 in 10.0 mi SE 6.9 mph - N/A   Clear
3:55 PM 64.4 °F - -23.8 °F 4% 29.93 in 10.0 mi South 5.8 mph - N/A   Clear
4:15 PM 64.4 °F - -23.8 °F 4% 29.93 in 10.0 mi South 8.1 mph 18.4 mph N/A   Clear
4:35 PM 62.6 °F - -25.6 °F 4% 29.91 in 10.0 mi South 9.2 mph - N/A   Clear
4:55 PM 60.8 °F - -25.6 °F 4% 29.92 in 10.0 mi SSW 9.2 mph - N/A   Clear
5:15 PM 60.8 °F - -27.4 °F 4% 29.93 in 10.0 mi South 5.8 mph - N/A   Clear
5:35 PM 59.0 °F - -27.4 °F 4% 29.94 in 10.0 mi South 3.5 mph - N/A   Clear
5:55 PM 55.4 °F - -29.2 °F 4% 29.94 in 10.0 mi Calm Calm - N/A   Clear
6:15 PM 51.8 °F - -32.8 °F 4% 29.94 in 10.0 mi Calm Calm - N/A   Clear
6:35 PM 51.8 °F - -32.8 °F 4% 29.95 in 10.0 mi Calm Calm - N/A   Clear
6:55 PM 46.4 °F - -34.6 °F 4% 29.94 in 10.0 mi Calm Calm - N/A   Clear
7:15 PM 46.4 °F - -36.4 °F 4% 29.93 in 10.0 mi Calm Calm - N/A   Clear
7:35 PM 46.4 °F - -36.4 °F 4% 29.92 in 10.0 mi Calm Calm - N/A   Clear
7:55 PM 46.4 °F - -36.4 °F 4% 29.91 in 10.0 mi Calm Calm - N/A   Clear
8:15 PM 44.6 °F - -36.4 °F 4% 29.92 in 10.0 mi Calm Calm - N/A   Clear
8:35 PM 44.6 °F 43.1 °F -36.4 °F 4% 29.92 in 10.0 mi North 3.5 mph - N/A   Clear
9:15 PM 44.6 °F - -36.4 °F 4% 29.93 in 10.0 mi Calm Calm - N/A   Clear
9:35 PM 44.6 °F - -36.4 °F 4% 29.94 in 10.0 mi Calm Calm - N/A   Clear
9:55 PM 44.6 °F 43.1 °F -38.2 °F 4% 29.95 in 10.0 mi NNW 3.5 mph - N/A   Clear
10:15 PM 42.8 °F 41.1 °F -38.2 °F 4% 29.95 in 10.0 mi NNE 3.5 mph - N/A   Clear
10:35 PM 44.6 °F 43.1 °F -36.4 °F 4% 29.94 in 10.0 mi North 3.5 mph - N/A   Clear
10:55 PM 46.4 °F - -36.4 °F 4% 29.93 in 10.0 mi Calm Calm - N/A   Clear
11:15 PM 44.6 °F - -38.2 °F 4% 29.94 in 10.0 mi Calm Calm - N/A   Clear
11:35 PM 42.8 °F - -38.2 °F 4% 29.93 in 10.0 mi Calm Calm - N/A   Clear
11:55 PM 42.8 °F - -38.2 °F 4% 29.93 in 10.0 mi Calm Calm - N/A   Clear